Location: Piotrkow Trybunalski
(51.4000°N, 19.6830°E)
Time: 05:48:30
(UTC+02:00)

A-11 Canister half - Pass Details

Date: 05 February 2023
Orbit: 1526 x 1682 km, 47.3° (Epoch: 25 March)

Event Time Altitude Azimuth Distance (km) Brightness Sun altitude
Rises 03:08:13 0° 183° (S) 4,675 - -38.0°
Reaches altitude 10° 03:12:37 10° 165° (SSE) 3,687 - -37.3°
Exits shadow 03:12:45 10° 165° (SSE) 3,661 10.9 -37.3°
Maximum altitude 03:18:02 17° 129° (SE) 3,148 10.8 -36.6°
Drops below altitude 10° 03:23:28 10° 92° (E) 3,704 11.7 -35.8°
Sets 03:27:52 0° 74° (ENE) 4,704 12.6 -35.1°
